Location: Bergheim
(50.9593°N, 6.6400°E)
Time: 10:05:30
(UTC+02:00)

ISS - Pass Details

Date: 24 May 2021
Orbit: 417 x 422 km, 51.6° (Epoch: 13 June)

Event Time Altitude Azimuth Distance (km) Brightness Sun altitude
Rises 01:22:24 0° 283° (WNW) 2,370 0.3 -18.3°
Reaches altitude 10° 01:24:53 10° 265° (W) 1,503 -1.0 -18.3°
Enters shadow 01:25:23 13° 258° (WSW) 1,360 -1.3 -18.3°
